Stations météo

réclame
Mon MeteoGroup
Bilbao/Aeropuerto, Espagne (8025): Température de l'air & dewpoint: 14.10.2018 20:00:00 - 20.10.2018 20:00:00 (CEST)Bilbao/Aeropuerto, Espagne (8025): Vitesse du vent: 14.10.2018 20:00:00 - 20.10.2018 20:00:00 (CEST)Bilbao/Aeropuerto, Espagne (8025): Direction du vent: 14.10.2018 20:00:00 - 20.10.2018 20:00:00 (CEST)Bilbao/Aeropuerto, Espagne (8025): reduced air pressure: 14.10.2018 20:00:00 - 20.10.2018 20:00:00 (CEST)Bilbao/Aeropuerto, Espagne (8025): visibility: 14.10.2018 20:00:00 - 20.10.2018 20:00:00 (CEST)
Date & Time tt [°C] td [°C] ff [km/h] ff [knt] dd ppp [hPa] vv [km]
20.10.2018 20:00:00 - - - - - - -
20.10.2018 19:00:00 18,2 16,2 4 2 S 1024,1 -
20.10.2018 18:00:00 18,4 16,0 8 4 NNE 1024,2 -
20.10.2018 17:00:00 18,9 16,3 5 3 NW 1024,2 7
20.10.2018 16:00:00 19,5 16,0 4 2 W 1024,3 -
20.10.2018 15:00:00 18,8 15,8 0 0 N 1024,7 -
20.10.2018 14:00:00 18,1 15,9 4 2 N 1025,2 6
20.10.2018 13:00:00 17,7 15,9 5 3 WNW 1025,8 -
20.10.2018 12:00:00 17,1 16,0 2 1 WNW 1025,6 -
20.10.2018 11:00:00 16,4 15,6 0 0 N 1025,4 -
20.10.2018 10:00:00 15,7 15,4 4 2 S 1024,9 -
20.10.2018 09:00:00 15,3 15,3 4 2 ESE 1024,0 -
20.10.2018 08:00:00 15,0 15,0 4 2 E 1023,3 8
20.10.2018 07:00:00 15,3 15,0 4 2 ESE 1023,1 -
20.10.2018 06:00:00 15,6 15,4 8 4 ESE 1023,0 -
20.10.2018 05:00:00 15,9 15,4 0 0 N 1022,7 15
20.10.2018 04:00:00 15,9 15,6 4 2 SE 1022,7 -
20.10.2018 03:00:00 15,9 15,4 0 0 N 1022,6 -
20.10.2018 02:00:00 16,0 15,4 4 2 WNW 1022,7 -
20.10.2018 01:00:00 15,6 15,3 0 0 N 1022,4 -
20.10.2018 00:00:00 16,2 15,7 8 4 NW 1022,5 -
19.10.2018 23:00:00 16,6 16,1 8 4 WNW 1022,8 8
19.10.2018 22:00:00 16,7 15,9 9 5 NNW 1022,2 -
19.10.2018 21:00:00 16,7 16,4 8 4 NNW 1021,6 -
19.10.2018 20:00:00 17,0 16,5 8 4 WNW 1021,0 8
19.10.2018 19:00:00 17,5 16,0 9 5 WNW 1020,1 -
19.10.2018 18:00:00 18,5 15,8 13 7 NW 1019,9 -
19.10.2018 17:00:00 19,3 16,8 15 8 NW 1019,7 8
19.10.2018 16:00:00 19,0 16,2 16 9 NW 1019,5 -
19.10.2018 15:00:00 20,1 17,1 15 8 NW 1019,4 -
19.10.2018 14:00:00 18,5 16,8 16 9 NNW 1020,0 7
19.10.2018 13:00:00 19,0 17,0 15 8 NNW 1020,3 -
19.10.2018 12:00:00 19,3 17,1 9 5 NNW 1019,5 -
19.10.2018 11:00:00 17,9 17,1 13 7 NNW 1019,6 7
19.10.2018 10:00:00 17,5 16,8 15 8 NNW 1018,9 -
19.10.2018 09:00:00 17,2 16,4 9 5 NNW 1018,1 -
19.10.2018 08:00:00 17,1 16,5 13 7 N 1017,6 8
19.10.2018 07:00:00 17,3 16,5 11 6 NNW 1017,9 -
19.10.2018 06:00:00 16,9 16,1 13 7 NNW 1017,8 -
19.10.2018 05:00:00 16,8 16,3 11 6 NNW 1017,9 8
19.10.2018 04:00:00 16,8 16,5 9 5 NNW 1017,8 -
19.10.2018 03:00:00 16,8 16,3 11 6 NNW 1017,7 -
19.10.2018 02:00:00 16,9 16,3 16 9 NW 1017,7 -
19.10.2018 01:00:00 16,8 16,3 16 9 NNW 1017,6 -
19.10.2018 00:00:00 16,9 16,6 16 9 NW 1017,6 -
18.10.2018 23:00:00 17,0 16,7 11 6 NNW 1017,4 8
18.10.2018 22:00:00 17,2 16,9 15 8 NNW 1017,2 -
18.10.2018 21:00:00 17,1 17,1 13 7 NW 1017,0 -
18.10.2018 20:00:00 17,2 17,2 11 6 NW 1016,8 5
18.10.2018 19:00:00 17,3 17,3 11 6 NW 1016,0 -
18.10.2018 18:00:00 17,2 17,2 13 7 WNW 1016,0 -
18.10.2018 17:00:00 17,3 17,3 8 4 WNW 1016,0 3,0
18.10.2018 16:00:00 16,7 16,7 4 2 WSW 1016,0 -
18.10.2018 15:00:00 16,8 16,8 11 6 WNW 1016,0 -
18.10.2018 14:00:00 16,9 16,8 11 6 WNW 1016,4 7
18.10.2018 13:00:00 17,0 17,0 9 5 WNW 1016,7 -
18.10.2018 12:00:00 17,0 16,8 9 5 WNW 1016,7 -
18.10.2018 11:00:00 16,7 16,7 8 4 WNW 1016,6 6
18.10.2018 10:00:00 15,9 15,9 4 2 WNW 1016,5 -
18.10.2018 09:00:00 15,3 15,3 0 0 N 1016,1 -
18.10.2018 08:00:00 14,9 14,9 0 0 N 1015,5 15
18.10.2018 07:00:00 14,7 14,7 4 2 NW 1015,3 -
18.10.2018 06:00:00 14,2 14,2 0 0 N 1015,1 -
18.10.2018 05:00:00 14,6 14,4 0 0 N 1014,9 15
18.10.2018 04:00:00 14,6 14,6 0 0 N 1015,2 -
18.10.2018 03:00:00 15,3 14,8 5 3 E 1015,4 -
18.10.2018 02:00:00 15,8 15,2 8 4 SE 1015,6 -
18.10.2018 01:00:00 15,7 15,1 4 2 WNW 1015,8 -
18.10.2018 00:00:00 15,8 14,7 0 0 N 1015,8 -
17.10.2018 23:00:00 16,2 14,7 0 0 N 1015,6 12
17.10.2018 22:00:00 16,0 14,5 2 1 WSW 1015,4 -
17.10.2018 21:00:00 15,9 14,1 5 3 ESE 1015,1 -
17.10.2018 20:00:00 16,5 14,0 11 6 E 1014,4 20
17.10.2018 19:00:00 18,0 14,3 15 8 E 1013,5 -
17.10.2018 18:00:00 20,0 14,6 13 7 E 1013,2 -
17.10.2018 17:00:00 20,6 14,5 18 10 ENE 1013,6 30
17.10.2018 16:00:00 22,0 14,2 9 5 NE 1013,7 -
17.10.2018 15:00:00 22,3 13,0 8 4 ENE 1014,5 -
17.10.2018 14:00:00 21,1 13,1 8 4 E 1015,7 30
17.10.2018 13:00:00 20,3 13,1 9 5 ESE 1016,7 -
17.10.2018 12:00:00 18,6 13,6 9 5 ESE 1017,5 -
17.10.2018 11:00:00 15,8 13,6 8 4 E 1018,1 20
17.10.2018 10:00:00 13,4 12,9 9 5 ESE 1018,6 -
17.10.2018 09:00:00 11,4 11,4 5 3 ESE 1018,6 -
17.10.2018 08:00:00 10,6 10,6 8 4 ESE 1018,7 30
17.10.2018 07:00:00 11,0 11,0 5 3 ESE 1018,9 -
17.10.2018 06:00:00 10,8 10,8 8 4 E 1018,8 -
17.10.2018 05:00:00 11,1 11,1 5 3 ESE 1019,1 15
17.10.2018 04:00:00 10,7 10,7 5 3 ESE 1019,6 -
17.10.2018 03:00:00 10,6 10,6 5 3 SE 1020,0 -
17.10.2018 02:00:00 11,3 11,3 8 4 E 1020,0 -
17.10.2018 01:00:00 11,9 11,7 4 2 E 1020,2 -
17.10.2018 00:00:00 12,7 12,4 0 0 N 1020,4 -
16.10.2018 23:00:00 13,4 12,7 2 1 E 1020,4 15
16.10.2018 22:00:00 14,3 13,3 4 2 SE 1020,1 -
16.10.2018 21:00:00 15,9 14,1 0 0 N 1019,7 -
16.10.2018 20:00:00 17,0 13,7 5 3 ENE 1019,5 15
16.10.2018 19:00:00 17,9 14,2 5 3 E 1018,9 -
16.10.2018 18:00:00 18,4 14,6 11 6 NNE 1018,3 -
16.10.2018 17:00:00 20,1 15,1 9 5 NE 1017,9 30
16.10.2018 16:00:00 20,5 13,5 8 4 N 1017,9 -
16.10.2018 15:00:00 20,2 14,5 8 4 NNE 1017,9 -
16.10.2018 14:00:00 19,1 14,2 13 7 N 1018,1 30
16.10.2018 13:00:00 19,3 13,3 5 3 NNW 1018,0 -
16.10.2018 12:00:00 17,5 13,9 4 2 ENE 1017,8 -
16.10.2018 11:00:00 15,9 13,5 5 3 ESE 1017,5 25
16.10.2018 10:00:00 13,7 12,9 8 4 ESE 1017,1 -
16.10.2018 09:00:00 13,0 12,4 9 5 E 1016,5 -
16.10.2018 08:00:00 12,6 12,4 4 2 ESE 1015,9 15
16.10.2018 07:00:00 12,2 12,2 5 3 E 1015,3 -
16.10.2018 06:00:00 11,7 11,7 8 4 ESE 1015,1 -
16.10.2018 05:00:00 11,8 11,8 4 2 SE 1014,4 15
16.10.2018 04:00:00 11,2 11,2 2 1 ESE 1013,9 -
16.10.2018 03:00:00 11,7 11,7 8 4 E 1013,5 -
16.10.2018 02:00:00 12,1 11,8 2 1 NNE 1013,1 -
16.10.2018 01:00:00 12,5 12,3 8 4 E 1012,7 -
16.10.2018 00:00:00 12,9 12,5 5 3 ESE 1012,4 -
15.10.2018 23:00:00 14,0 12,7 0 0 N 1011,9 30
15.10.2018 22:00:00 15,4 13,1 5 3 SE 1011,3 -
15.10.2018 21:00:00 15,8 12,9 13 7 SE 1010,6 -
15.10.2018 20:00:00 16,7 12,2 9 5 ESE 1009,4 30
15.10.2018 19:00:00 18,7 11,8 11 6 ESE 1008,2 -
15.10.2018 18:00:00 20,7 11,2 16 9 E 1007,4 -
15.10.2018 17:00:00 22,2 7,5 8 4 E 1006,9 30
15.10.2018 16:00:00 21,9 6,7 8 4 ENE 1006,8 -
15.10.2018 15:00:00 21,8 7,6 9 5 ESE 1007,2 -
15.10.2018 14:00:00 20,9 7,7 9 5 S 1007,4 30
15.10.2018 13:00:00 19,8 9,5 9 5 SSE 1007,4 -
15.10.2018 12:00:00 17,0 11,3 11 6 SE 1007,4 -
15.10.2018 11:00:00 14,6 11,5 13 7 SE 1007,6 25
15.10.2018 10:00:00 13,3 11,5 13 7 ESE 1007,7 -
15.10.2018 09:00:00 11,0 10,7 9 5 ESE 1008,3 -
15.10.2018 08:00:00 10,1 10,1 9 5 ESE 1008,5 20
15.10.2018 07:00:00 9,9 9,9 5 3 SE 1008,8 -
15.10.2018 06:00:00 10,1 10,1 8 4 ESE 1009,0 -
15.10.2018 05:00:00 10,7 10,7 5 3 E 1009,1 15
15.10.2018 04:00:00 11,7 11,5 4 2 ESE 1009,6 -
15.10.2018 03:00:00 12,4 11,9 8 4 SE 1010,4 -
15.10.2018 02:00:00 12,5 12,0 8 4 ESE 1010,6 -
15.10.2018 01:00:00 12,6 12,0 8 4 ESE 1011,0 -
15.10.2018 00:00:00 12,3 11,7 2 1 ESE 1011,2 -
14.10.2018 23:00:00 12,1 11,5 5 3 E 1010,9 15
14.10.2018 22:00:00 12,4 11,8 8 4 ESE 1010,6 -
14.10.2018 21:00:00 13,0 11,7 0 0 N 1010,7 -
14.10.2018 20:00:00 14,1 10,3 4 2 WNW 1010,4 20

tt = Température de l'air
td = dewpoint
ff = Vitesse du vent
dd = Direction du vent
ppp = reduced air pressure
vv = visibility

stations d'obs. à proximité